Regional Weather Roundup
Issued by NWS Cleveland, OH

Home | Current Version | Previous Version | Graphics & Text | Print | Product List | Glossary On
Versions: 1 2 3 4 5 6 7 8 9 10 11 12 13 14 15 16 17 18 19 20 21 22 23 24 25 26 27 28 29 30 31 32 33 34 35 36 37 38 39 40 41 42 43 44 45 46 47 48 49 50
356
ASUS41 KCLE 241010
RWRCLE
OHIO REGIONAL WEATHER ROUNDUP
NATIONAL WEATHER SERVICE WILMINGTON, OH
600 AM EDT TUE MAY 24 2016

NOTE: "FAIR" INDICATES FEW OR NO CLOUDS BELOW 12,000 FEET WITH NO
SIGNIFICANT WEATHER AND/OR OBSTRUCTIONS TO VISIBILITY.

OHZ001>008-015>018-024>027-034-035-043-044-241100-
   NORTHWEST OHIO

CITY           SKY/WX    TMP DP  RH WIND       PRES   REMARKS
DEFIANCE       FAIR      48  45  89 CALM      30.03R
FINDLAY        FAIR      54  45  71 CALM      30.03R
TOLEDO EXPRESS FAIR      48  46  93 CALM      30.03R
TOLEDO EXEC    FAIR      53  46  77 SW5       30.03R
LIMA           FAIR      56  46  69 S6        30.05R
$$

OHZ009>014-019>023-028>033-038-089-241100-
   NORTHEAST OHIO

CITY           SKY/WX    TMP DP  RH WIND       PRES   REMARKS
CLE-HOPKINS    FAIR      50  45  83 CALM      30.05R
CLE-LAKEFRONT  FAIR      57  48  72 S8        30.01S
CUY CO. ARPT   NOT AVBL
LORAIN-ELYRIA  FAIR      50  44  80 SW3       30.04R
ASHTABULA      FAIR      46  44  93 CALM      30.04R
AKRON-CANTON   FAIR      52  46  80 SW3       30.05R
WOOSTER        FAIR      48  45  89 CALM      30.06R
MANSFIELD      FAIR      51  47  86 S5        30.05R
YOUNGSTOWN     FAIR      49  47  93 CALM      30.04R
$$

OHZ042-051>053-060>062-070>072-077>081-241100-
  SOUTHWEST OHIO

CITY           SKY/WX    TMP DP  RH WIND       PRES   REMARKS
CINC-COVINGTON FAIR      55  49  80 CALM      30.07R
CINC-LUNKEN    FAIR      50  50 100 CALM      30.08R FOG
HAMILTON       FAIR      49  48  97 CALM      30.08R FOG
DAYTON         FAIR      53  47  79 SW6       30.07R
WRIGHT-PAT AFB FAIR      51  50  98 CALM      30.06R
DAYTON GENERAL FAIR      56  47  71 CALM      30.06R
WILMINGTON     FAIR      54  50  86 CALM      30.07R
$$

OHZ036-037-039>041-045>050-054>059-063>069-073>076-082>088-241100-
  CENTRAL AND SOUTHEAST OHIO

CITY           SKY/WX    TMP DP  RH WIND       PRES   REMARKS
COLUMBUS       FAIR      51  49  92 CALM      30.05R
OSU AIRPORT    FAIR      51  49  92 CALM      30.06R
BOLTON FIELD   FAIR      49  47  94 CALM      30.06S
RICKENBACK AFB FAIR      51  49  95 CALM      30.06R
NEWARK         FAIR      49  46  90 CALM      30.06R FOG
MARION         FAIR      50  47  89 S3        30.05R
LANCASTER      FAIR      48  46  93 CALM      30.07R FOG
ZANESVILLE     FAIR      51  47  86 CALM      30.06R
NEW PHILLY     FAIR      51  47  86 CALM      30.07R
$$




USA.gov is the U.S. government's official web portal to all federal, state and local government web resources and services.